Chariton, IA

9:11 PM CDT on July 22, 2017 (GMT -0500)
Chariton Municipal

Weather History for KCNC - May, 2013

Change the Weather History Date:

Monday, May 20, 2013

  Actual Average Record
Temperature  
Mean Temperature 69 °F -  
Max Temperature 78 °F 76 °F 89 °F (1962)
Min Temperature 60 °F 51 °F 29 °F (1954)
Cooling Degree Days 4    
Growing Degree Days 19 (Base 50)    
Moisture  
Dew Point 60 °F    
Average Humidity 77    
Maximum Humidity 94    
Minimum Humidity 50    
Precipitation  
Precipitation 0.03 in - - ()
Sea Level Pressure  
Sea Level Pressure 29.64 in    
Wind  
Wind Speed 15 mph (South)    
Max Wind Speed 25 mph    
Max Gust Speed 34 mph    
Visibility 10 miles    
Events Rain    
Averages and records for this station are not official NWS values.
T = Trace of Precipitation, MM = Missing Value Source: NWS Daily Summary

Daily Weather History Graph

Daily Weather History Graph

Search for Another Location

Airport or City:

Trip Planner

Search our weather history database for the weather conditions in past years. The results will help you decide how hot, cold, wet, or windy it might be!

Date:

Astronomy

May. 20, 2013 Rise Set
Actual Time 5:50 AM CDT 8:29 PM CDT
Civil Twilight 5:19 AM CDT 9:01 PM CDT
Nautical Twilight 4:39 AM CDT 9:41 PM CDT
Astronomical Twilight 3:54 AM CDT 10:26 PM CDT
Moon 3:35 PM CDT (5/20) 2:48 AM CDT (5/20)
Length of Visible Light 15h 42m
Length of Day
14h 38m
Waxing Gibbous, 75% of the Moon is Illuminated
May 20
Waxing Gibbous
May 24
Full
May 31
Last Quarter
Jun 8
New
Jun 16
First Quarter

Hourly Weather History & Observations

Time (CDT) Temp. Dew Point Humidity Pressure Visibility Wind Dir Wind Speed Gust Speed Precip Events Conditions
12:15 AM 62.6 °F 60.8 °F 94% 29.65 in 10.0 mi SSE 13.8 mph 20.7 mph N/A   Mostly Cloudy
12:35 AM 62.6 °F 60.8 °F 94% 29.67 in 10.0 mi South 17.3 mph 24.2 mph N/A   Overcast
12:55 AM 62.6 °F 60.8 °F 94% 29.64 in 9.0 mi South 13.8 mph 20.7 mph 0.01 in Rain Light Rain
1:15 AM 62.6 °F 60.8 °F 94% 29.61 in 10.0 mi South 6.9 mph - N/A   Overcast
1:35 AM 62.6 °F 60.8 °F 94% 29.64 in 10.0 mi South 12.7 mph - N/A   Overcast
1:55 AM 62.6 °F 60.8 °F 94% 29.64 in 10.0 mi South 16.1 mph - N/A   Mostly Cloudy
2:15 AM 62.6 °F 60.8 °F 94% 29.62 in 10.0 mi South 15.0 mph - N/A   Mostly Cloudy
2:35 AM 62.6 °F 60.8 °F 94% 29.61 in - South 15.0 mph - N/A   Unknown
3:15 AM 62.6 °F 60.8 °F 94% 29.58 in 10.0 mi South 13.8 mph 20.7 mph N/A   Overcast
3:35 AM 62.6 °F 60.8 °F 94% 29.57 in 10.0 mi South 12.7 mph - N/A   Overcast
3:55 AM 62.6 °F 59.0 °F 88% 29.58 in 10.0 mi SSW 12.7 mph 19.6 mph N/A   Scattered Clouds
4:35 AM 60.8 °F 59.0 °F 94% 29.61 in 10.0 mi South 13.8 mph 20.7 mph N/A   Mostly Cloudy
4:55 AM 60.8 °F 59.0 °F 94% 29.62 in 10.0 mi South 16.1 mph - N/A   Mostly Cloudy
5:15 AM 60.8 °F 59.0 °F 94% 29.63 in 10.0 mi South 11.5 mph - N/A   Scattered Clouds
5:35 AM 60.8 °F 59.0 °F 94% 29.64 in 10.0 mi South 13.8 mph - N/A   Mostly Cloudy
5:55 AM 60.8 °F 59.0 °F 94% 29.64 in 10.0 mi South 15.0 mph - N/A   Partly Cloudy
6:15 AM 60.8 °F 59.0 °F 94% 29.64 in 10.0 mi South 12.7 mph - N/A   Clear
6:35 AM 62.6 °F 59.0 °F 88% 29.65 in 10.0 mi South 16.1 mph - N/A   Clear
7:15 AM 62.6 °F 59.0 °F 88% 29.65 in 10.0 mi South 18.4 mph 24.2 mph N/A   Clear
7:35 AM 62.6 °F 59.0 °F 88% 29.65 in 10.0 mi South 17.3 mph 25.3 mph N/A   Clear
7:55 AM 64.4 °F 59.0 °F 83% 29.66 in 10.0 mi South 18.4 mph 24.2 mph N/A   Clear
8:15 AM 64.4 °F 59.0 °F 83% 29.66 in 10.0 mi SSW 18.4 mph 24.2 mph N/A   Clear
8:35 AM 66.2 °F 59.0 °F 78% 29.66 in 10.0 mi SSW 17.3 mph 24.2 mph N/A   Clear
8:55 AM 66.2 °F 60.8 °F 83% 29.66 in 10.0 mi SSW 18.4 mph 26.5 mph N/A   Clear
9:15 AM 68.0 °F 60.8 °F 78% 29.66 in 10.0 mi SSW 18.4 mph 27.6 mph N/A   Clear
9:35 AM 68.0 °F 60.8 °F 78% 29.67 in 10.0 mi SSW 20.7 mph 26.5 mph N/A   Clear
9:55 AM 69.8 °F 59.0 °F 68% 29.67 in 10.0 mi SSW 21.9 mph 32.2 mph N/A   Clear
10:35 AM 71.6 °F 59.0 °F 64% 29.69 in 10.0 mi SW 15.0 mph 29.9 mph N/A   Clear
10:55 AM 71.6 °F 59.0 °F 64% 29.70 in 10.0 mi SW 17.3 mph 27.6 mph N/A   Clear
11:15 AM 71.6 °F 59.0 °F 64% 29.70 in 10.0 mi SW 18.4 mph 24.2 mph N/A   Clear
11:35 AM 73.4 °F 59.0 °F 61% 29.69 in - SW 18.4 mph 27.6 mph N/A   Clear
11:55 AM 73.4 °F 57.2 °F 57% 29.70 in 10.0 mi SW 18.4 mph 27.6 mph N/A   Clear
12:15 PM 75.2 °F 57.2 °F 53% 29.70 in 10.0 mi SW 17.3 mph 28.8 mph N/A   Clear
12:35 PM 75.2 °F 57.2 °F 53% 29.69 in 10.0 mi SW 17.3 mph 26.5 mph N/A   Clear
1:15 PM 75.2 °F 57.2 °F 53% 29.69 in 10.0 mi SW 18.4 mph 28.8 mph N/A   Clear
1:55 PM 77.0 °F 59.0 °F 54% 29.70 in 10.0 mi SW 11.5 mph 23.0 mph N/A   Clear
2:15 PM 77.0 °F 57.2 °F 50% 29.69 in 10.0 mi SW 17.3 mph 25.3 mph N/A   Clear
2:35 PM 77.0 °F 59.0 °F 54% 29.70 in 10.0 mi SW 13.8 mph 26.5 mph N/A   Clear
2:55 PM 77.0 °F 59.0 °F 54% 29.70 in 10.0 mi SSW 18.4 mph 26.5 mph N/A   Clear
3:15 PM 77.0 °F 59.0 °F 54% 29.68 in 10.0 mi SSW 21.9 mph 27.6 mph N/A   Clear
3:35 PM 77.0 °F 62.6 °F 61% 29.68 in 10.0 mi South 20.7 mph 29.9 mph N/A   Clear
3:55 PM 77.0 °F 60.8 °F 57% 29.67 in 10.0 mi South 21.9 mph - N/A   Clear
4:15 PM 77.0 °F 60.8 °F 57% 29.66 in 10.0 mi South 20.7 mph 27.6 mph N/A   Clear
4:35 PM 77.0 °F 62.6 °F 61% 29.65 in 10.0 mi South 18.4 mph 27.6 mph N/A   Clear
4:55 PM 78.8 °F 64.4 °F 61% 29.64 in 10.0 mi South 21.9 mph 27.6 mph N/A   Partly Cloudy
5:15 PM 77.0 °F 64.4 °F 65% 29.64 in 10.0 mi South 25.3 mph 34.5 mph N/A   Scattered Clouds
5:35 PM 75.2 °F 64.4 °F 69% 29.64 in 10.0 mi South 21.9 mph 31.1 mph N/A   Partly Cloudy
5:55 PM 75.2 °F 64.4 °F 69% 29.64 in 10.0 mi South 19.6 mph 29.9 mph N/A   Partly Cloudy
6:15 PM 75.2 °F 64.4 °F 69% 29.62 in 10.0 mi South 20.7 mph 26.5 mph N/A   Partly Cloudy
6:35 PM 73.4 °F 64.4 °F 73% 29.63 in 10.0 mi South 15.0 mph 27.6 mph N/A   Partly Cloudy
6:55 PM 73.4 °F 64.4 °F 73% 29.61 in 10.0 mi SSE 17.3 mph - N/A   Clear
7:15 PM 73.4 °F 64.4 °F 73% 29.58 in 9.0 mi SSE 23.0 mph 28.8 mph N/A   Partly Cloudy
7:35 PM 73.4 °F 64.4 °F 73% 29.57 in 10.0 mi SSE 19.6 mph 26.5 mph N/A   Partly Cloudy
7:55 PM 71.6 °F 64.4 °F 78% 29.58 in 10.0 mi South 18.4 mph 27.6 mph N/A   Scattered Clouds
8:15 PM 71.6 °F 64.4 °F 78% 29.59 in 10.0 mi South 13.8 mph 20.7 mph N/A   Mostly Cloudy
8:35 PM 71.6 °F 66.2 °F 83% 29.59 in 10.0 mi South 12.7 mph 19.6 mph N/A   Mostly Cloudy
9:15 PM 69.8 °F 66.2 °F 88% 29.60 in 10.0 mi South 10.4 mph - N/A   Overcast
9:35 PM 64.4 °F 59.0 °F 83% 29.63 in 8.0 mi WSW 11.5 mph 19.6 mph N/A   Light Drizzle
9:55 PM 62.6 °F 57.2 °F 82% 29.60 in 10.0 mi SSE 4.6 mph - 0.02 in   Unknown
10:15 PM 62.6 °F 59.0 °F 88% 29.61 in 10.0 mi SE 8.1 mph - N/A   Overcast
10:35 PM 62.6 °F 57.2 °F 82% 29.62 in 10.0 mi SSE 8.1 mph - N/A   Mostly Cloudy
10:55 PM 60.8 °F 57.2 °F 88% 29.62 in 10.0 mi SSE 4.6 mph - N/A   Mostly Cloudy
11:15 PM 62.6 °F 59.0 °F 88% 29.62 in 10.0 mi South 8.1 mph - N/A   Partly Cloudy
11:35 PM 62.6 °F 59.0 °F 88% 29.63 in 10.0 mi South 8.1 mph - N/A   Clear
11:55 PM 62.6 °F 59.0 °F 88% 29.63 in 10.0 mi South 8.1 mph - N/A   Clear